15min,AgWx,beryljct,423,06APR2021:00:00:00,47.5,12.86,42.4,42.7,42.9,45.0,40.4,33,38,27,0.264,15.5,21.2,11.2,6.401,7.1,305,6.8,8.6,0.00033,0.00043,54.6,53.2,13,0,0,.,7.80,0.00,0.00
15min,AgWx,beryljct,423,06APR2021:00:15:00,46.7,12.85,50.2,49.7,46.3,49.7,42.0,23,30,18,0.236,10.5,13.2,7.0,11.93,10.8,315,12,18.6,0.00058,0.00071,54.4,53.2,13,0,0,.,7.80,0.00,0.00
15min,AgWx,beryljct,423,06APR2021:00:30:00,47.2,12.85,46.5,46.2,47.7,49.7,44.7,22,35,17,0.229,10.0,19.0,6.2,5.437,7.1,354,26,12.4,0.00047,0.00061,54.2,53.2,13,0,0,.,7.80,0.00,0.00
15min,AgWx,beryljct,423,06APR2021:00:45:00,46.6,12.84,42.0,42.2,44.1,46.6,42.2,29,38,19,0.343,13.2,18.2,6.3,7.147,5.5,28,14,8.6,0.00029,0.00039,53.9,53.1,13,0,0,.,7.80,0.00,0.00
15min,AgWx,beryljct,423,06APR2021:01:00:00,45.8,12.82,42.5,42.0,42.5,42.9,41.9,47,54,38,0.487,23.5,26.7,18.5,8.22,8.5,64,8.7,11.2,0.00028,0.00035,53.7,53.1,13,0,0,.,7.80,0.00,0.00
15min,AgWx,beryljct,423,06APR2021:01:15:00,44.9,12.82,41.5,41.3,41.8,42.1,41.3,57,61,53,0.524,27.7,28.9,26.1,11.68,8.7,56,10,12.1,0.00021,0.00026,53.4,53.0,13,0,0,.,7.80,0.00,0.00
15min,AgWx,beryljct,423,06APR2021:01:30:00,44.3,12.81,41.4,40.9,41.1,41.3,40.9,62,67,59,0.574,29.1,30.9,27.9,13.24,13.7,54,8.8,18.1,0.00024,0.00029,53.2,53.0,13,0,39,.,8.08,0.28,0.08
15min,AgWx,beryljct,423,06APR2021:01:45:00,43.6,12.81,39.5,39.5,40.3,41.0,39.5,65,70,59,0.488,29.5,31.5,26.5,5.437,7.6,87,22,14.9,0.00012,0.00016,52.9,53.0,13,0,100,.,8.33,0.25,0.23
15min,AgWx,beryljct,423,06APR2021:02:00:00,42.1,12.8,38.7,38.5,38.7,39.4,38.4,62,64,59,0.500,26.9,27.4,26.3,13.59,9.4,60,11,15.0,0.00017,0.00021,52.7,52.9,13,0,100,.,8.33,0.00,0.00
15min,AgWx,beryljct,423,06APR2021:02:15:00,41.3,12.79,38.5,38.3,38.4,38.5,38.2,64,64,63,0.497,27.1,27.3,26.8,11.31,13.8,55,7.9,17.0,0.00021,0.00025,52.4,52.8,13,0,100,.,8.33,0.00,0.00
15min,AgWx,beryljct,423,06APR2021:02:30:00,40.9,12.78,37.6,37.6,37.9,38.3,37.5,63,64,62,0.486,26.5,27.0,26.2,10.7,11.5,56,8.2,16.0,0.00018,0.00022,52.1,52.8,13,0,100,.,8.33,0.00,0.00
15min,AgWx,beryljct,423,06APR2021:02:45:00,40.2,12.78,36.6,36.2,36.8,37.5,36.2,65,66,63,0.467,26.0,26.4,25.5,6.708,9.1,52,6.7,13.2,0.00014,0.00017,51.8,52.7,13,0,100,.,8.33,0.00,0.00
15min,AgWx,beryljct,423,06APR2021:03:00:00,39.5,12.77,36.2,36.4,36.1,36.4,35.8,65,66,64,0.464,25.5,25.7,25.3,6.445,7.1,61,10,10.5,0.00009,0.00013,51.4,52.7,13,0,100,.,8.34,0.00,0.00
15min,AgWx,beryljct,423,06APR2021:03:15:00,38.9,12.76,36.4,36.2,36.4,36.6,36.2,64,65,63,0.463,25.3,25.6,25.1,12.08,10.5,45,8.8,16.0,0.00016,0.00019,51.0,52.6,13,0,100,.,8.34,0.01,0.00
15min,AgWx,beryljct,423,06APR2021:03:30:00,38.5,12.75,35.3,35.0,35.7,36.2,35.0,64,65,64,0.448,24.8,25.3,24.4,9.34,10.5,33,9.3,13.1,0.00015,0.00019,50.6,52.5,13,0,100,.,8.34,0.00,0.00
15min,AgWx,beryljct,423,06APR2021:03:45:00,38.0,12.75,34.5,34.2,34.8,35.2,34.2,65,66,64,0.436,24.2,24.5,23.7,6.599,10.1,33,6.3,13.4,0.00014,0.00017,50.3,52.4,13,0,100,.,8.34,0.00,0.00
15min,AgWx,beryljct,423,06APR2021:04:00:00,37.2,12.73,33.5,33.6,33.8,34.2,33.6,65,65,64,0.417,23.1,23.8,22.6,4.384,6.7,43,9.7,10.4,0.00008,0.00011,49.9,52.3,13,0,100,.,8.34,0.00,0.00
15min,AgWx,beryljct,423,06APR2021:04:15:00,36.3,12.72,33.2,32.6,33.0,33.6,32.5,63,64,62,0.393,21.9,22.7,21.4,6.204,5.7,34,7.2,8.7,0.00006,0.00009,49.6,52.2,13,0,100,.,8.35,0.00,0.00
15min,AgWx,beryljct,423,06APR2021:04:30:00,35.6,12.73,32.7,31.9,32.6,33.2,31.8,60,63,57,0.360,20.1,21.4,19.3,6.16,5.0,14,9.8,7.1,0.00006,0.00009,49.2,52.1,13,0,100,.,8.34,0.00,0.00
15min,AgWx,beryljct,423,06APR2021:04:45:00,34.8,12.7,28.9,30.4,31.8,32.3,30.4,55,59,52,0.318,17.6,19.2,16.4,2.696,4.0,5.4,20,6.2,0.00004,0.00007,48.8,52.0,13,0,0,.,8.35,0.00,0.00
15min,AgWx,beryljct,423,06APR2021:05:00:00,33.6,12.72,31.1,30.5,29.4,30.7,27.8,59,66,53,0.309,16.9,18.0,15.7,3.683,3.2,321,18,5.4,-0.00001,0.00001,48.5,51.9,13,0,0,.,8.35,0.00,0.00
15min,AgWx,beryljct,423,06APR2021:05:15:00,32.7,12.71,29.9,29.1,29.7,30.5,28.7,54,57,52,0.292,15.1,16.2,14.3,2.631,3.1,332,11,4.2,0.00000,0.00002,48.2,51.8,13,0,0,.,8.35,0.00,0.00
15min,AgWx,beryljct,423,06APR2021:05:30:00,31.9,12.7,29.5,28.9,28.8,29.2,28.2,55,56,53,0.292,14.7,15.1,14.4,3.464,2.6,306,11,3.9,0.00018,0.00032,47.9,51.6,13,0,0,.,8.35,0.00,0.00
15min,AgWx,beryljct,423,06APR2021:05:45:00,31.1,12.68,28.0,27.5,27.9,29.1,27.2,57,59,54,0.287,14.8,15.5,14.0,4.341,4.2,333,14,5.5,0.00025,0.00043,47.6,51.6,13,0,0,.,8.35,0.00,0.00
15min,AgWx,beryljct,423,06APR2021:06:00:00,30.5,12.67,29.2,28.2,27.3,28.2,26.6,57,58,56,0.293,14.0,14.6,13.3,5.02,4.3,348,14,6.4,0.00025,0.00044,47.3,51.5,13,0,0,.,8.35,0.00,0.00
15min,AgWx,beryljct,423,06APR2021:06:15:00,30.2,12.68,27.8,27.1,28.3,29.2,26.8,58,61,56,0.302,15.3,16.1,14.1,2.324,3.9,0.8,34,6.5,0.00025,0.00043,47.0,51.3,13,4,0,.,8.35,0.00,0.00
15min,AgWx,beryljct,423,06APR2021:06:30:00,29.8,12.69,29.7,28.9,28.1,28.9,27.2,57,60,55,0.307,14.9,15.8,14.2,2.214,2.3,343,20,3.4,0.00023,0.00035,46.8,51.2,13,21,0,.,8.35,0.00,0.00
15min,AgWx,beryljct,423,06APR2021:06:45:00,29.9,12.72,26.7,26.6,28.0,29.1,26.5,59,63,56,0.304,15.5,16.0,15.0,3.529,2.7,33,8.8,3.8,0.00038,0.00052,46.5,51.1,13,63,0,.,8.35,0.00,0.00
15min,AgWx,beryljct,423,06APR2021:07:00:00,30.0,12.69,30.5,29.0,27.9,30.2,26.4,64,68,60,0.357,17.3,19.2,15.2,3.266,3.2,13,26,4.1,0.00048,0.00063,46.3,51.0,13,108,0,.,8.35,0.00,0.00
15min,AgWx,beryljct,423,06APR2021:07:15:00,31.2,12.72,31.6,31.2,31.0,31.4,29.2,57,65,54,0.327,17.6,19.0,16.6,4.056,3.7,20,12,5.3,0.00071,0.00092,46.1,50.9,13,156,0,.,8.35,0.00,0.00
15min,AgWx,beryljct,423,06APR2021:07:30:00,32.7,12.81,33.0,32.5,31.8,32.5,31.1,55,58,52,0.325,17.3,18.1,16.6,2.433,2.6,25,12,4.8,0.00085,0.00104,45.8,50.7,13,206,0,.,8.35,0.00,0.00
15min,AgWx,beryljct,423,06APR2021:07:45:00,34.4,13.01,34.4,34.3,33.5,34.4,32.6,52,56,47,0.316,17.7,20.1,15.7,3.025,2.9,31,15,4.5,0.00108,0.00131,45.6,50.6,13,260,0,.,8.35,0.00,0.00
15min,AgWx,beryljct,423,06APR2021:08:00:00,36.3,13.33,34.8,34.9,34.6,35.2,34.2,46,49,43,0.298,16.1,17.6,14.5,2.828,2.9,37,18,5.0,0.00130,0.00157,45.5,50.5,13,306,0,.,8.35,0.00,0.00
15min,AgWx,beryljct,423,06APR2021:08:15:00,38.0,14.66,35.3,35.2,35.1,35.6,34.8,45,49,43,0.299,16.0,18.1,14.6,3.858,4.2,43,16,5.8,0.00157,0.00193,45.3,50.4,13,369,0,.,8.34,0.00,0.00
15min,AgWx,beryljct,423,06APR2021:08:30:00,39.5,14.65,38.2,37.7,36.1,37.7,35.2,42,45,40,0.310,15.2,17.5,14.0,2.718,3.3,5.2,22,6.2,0.00180,0.00215,45.1,50.2,13,422,0,.,8.34,0.00,0.00
15min,AgWx,beryljct,423,06APR2021:08:45:00,41.4,14.63,39.2,39.5,38.2,39.5,37.5,38,41,35,0.325,14.6,16.9,12.9,5.48,3.3,8.2,24,5.5,0.00210,0.00250,44.9,50.1,13,475,0,.,8.34,0.00,0.00
15min,AgWx,beryljct,423,06APR2021:09:00:00,43.2,14.57,40.6,40.9,40.3,41.5,39.0,38,42,35,0.326,16.9,20.4,14.1,5.196,5.7,28,20,9.1,0.00244,0.00301,44.8,50.0,13,527,0,.,8.34,0.00,0.00
15min,AgWx,beryljct,423,06APR2021:09:15:00,44.9,14.54,41.9,42.0,41.3,42.1,40.5,37,42,35,0.337,17.2,19.9,14.9,5.064,5.2,46,18,7.9,0.00268,0.00326,44.7,49.9,13,577,0,.,8.34,0.00,0.00
15min,AgWx,beryljct,423,06APR2021:09:30:00,46.5,14.51,41.9,43.0,42.4,43.3,41.7,32,38,29,0.291,14.7,18.3,12.6,5.459,4.5,17,19,7.9,0.00296,0.00355,44.8,49.8,13,624,0,.,8.33,0.00,0.00
15min,AgWx,beryljct,423,06APR2021:09:45:00,48.1,14.46,44.2,44.0,43.3,44.0,42.6,29,33,25,0.266,13.4,16.0,10.2,4.626,3.2,355,39,6.9,0.00320,0.00372,44.9,49.6,13,669,0,.,8.33,0.00,0.00
15min,AgWx,beryljct,423,06APR2021:10:00:00,49.8,14.48,45.2,44.8,44.7,45.6,43.6,25,30,21,0.253,11.1,15.3,7.6,3.179,3.4,27,37,6.5,0.00350,0.00409,45.1,49.5,13,712,0,.,8.33,0.00,0.00
15min,AgWx,beryljct,423,06APR2021:10:15:00,51.3,14.43,45.9,46.4,45.2,46.4,44.3,24,28,21,0.233,10.4,15.1,7.2,4.998,2.5,19,38,5.2,0.00369,0.00421,45.4,49.4,13,752,0,.,8.32,0.00,0.00
15min,AgWx,beryljct,423,06APR2021:10:30:00,52.4,14.03,47.9,47.0,45.8,47.0,45.2,22,27,17,0.289,8.9,14.4,3.6,6.401,3.1,357,39,7.8,0.00390,0.00450,45.8,49.3,13,785,0,.,8.32,0.00,0.00
15min,AgWx,beryljct,423,06APR2021:10:45:00,53.4,14,46.5,47.1,46.8,47.8,46.0,22,28,18,0.222,9.5,16.5,5.7,2.828,3.1,351,59,6.2,0.00413,0.00477,46.2,49.2,13,819,0,.,8.32,0.00,0.00
15min,AgWx,beryljct,423,06APR2021:11:00:00,54.2,13.99,47.2,48.4,48.1,49.5,46.9,22,28,19,0.221,11.4,16.9,7.3,2.894,3.7,71,60,10.2,0.00436,0.00508,46.7,49.1,13,850,0,.,8.31,0.00,0.00
15min,AgWx,beryljct,423,06APR2021:11:15:00,54.6,13.96,48.0,48.6,48.4,49.2,47.8,20,23,18,0.228,9.1,13.3,5.8,3.091,3.6,28,42,10.0,0.00449,0.00522,47.3,49.0,13,871,0,.,8.31,0.00,0.00
15min,AgWx,beryljct,423,06APR2021:11:30:00,55.0,13.96,50.3,49.3,49.4,50.1,48.2,23,27,18,0.245,12.7,17.5,7.2,3.551,7.5,76,19,16.8,0.00469,0.00577,47.9,49.0,13,893,0,.,8.31,0.00,0.00
15min,AgWx,beryljct,423,06APR2021:11:45:00,55.2,13.97,52.4,51.7,50.1,51.9,49.0,22,28,18,0.325,12.9,19.8,7.5,9.73,6.2,45,31,11.4,0.00479,0.00578,48.5,48.9,13,909,0,.,8.31,0.00,0.00
15min,AgWx,beryljct,423,06APR2021:12:00:00,55.7,13.96,50.5,50.4,50.8,51.7,50.1,20,25,17,0.244,11.2,17.1,6.8,1.271,8.6,21,25,13.2,0.00497,0.00621,49.2,48.9,13,923,0,.,8.31,0.00,0.00
15min,AgWx,beryljct,423,06APR2021:12:15:00,55.9,14.05,51.0,51.2,51.1,51.9,50.2,22,26,17,0.252,13.5,17.9,7.8,8.2,8.3,63,35,14.1,0.00500,0.00619,49.9,48.9,13,934,0,.,8.31,0.00,0.00
15min,AgWx,beryljct,423,06APR2021:12:30:00,56.2,13.93,54.1,52.1,51.7,52.4,50.9,22,27,17,0.289,14.2,19.5,8.0,8.53,5.5,57,31,11.2,0.00504,0.00601,50.5,48.9,13,939,0,.,8.30,0.00,0.00
15min,AgWx,beryljct,423,06APR2021:12:45:00,56.5,13.93,53.1,52.4,52.1,53.4,51.0,22,27,18,0.306,14.2,20.3,9.4,1.162,5.5,85,39,10.9,0.00508,0.00607,51.1,48.9,13,940,0,.,8.30,0.00,0.00
15min,AgWx,beryljct,423,06APR2021:13:00:00,57.1,13.9,53.2,53.8,53.2,54.6,52.2,21,26,16,0.325,14.1,20.3,7.8,14.99,6.5,33,44,15.4,0.00518,0.00627,51.7,48.9,13,937,0,.,8.30,0.00,0.00
15min,AgWx,beryljct,423,06APR2021:13:15:00,57.8,13.88,53.4,53.3,53.2,54.5,52.2,20,27,16,0.296,13.5,21.3,7.9,5.371,6.7,71,39,13.9,0.00517,0.00631,52.4,48.9,13,932,0,.,8.30,0.00,0.00
15min,AgWx,beryljct,423,06APR2021:13:30:00,58.4,13.86,55.9,55.5,54.0,55.6,53.0,21,26,16,0.332,14.4,20.6,8.7,4.954,6.2,65,42,10.8,0.00517,0.00626,53.0,49.0,13,921,0,.,8.30,0.00,0.00
15min,AgWx,beryljct,423,06APR2021:13:45:00,59.4,13.86,55.0,55.5,54.8,56.3,53.6,20,26,15,0.314,14.1,21.3,6.9,10.52,6.1,41,37,12.3,0.00516,0.00625,53.6,49.1,13,906,0,.,8.30,0.00,0.00
15min,AgWx,beryljct,423,06APR2021:14:00:00,60.4,13.83,57.0,55.9,55.1,56.6,54.2,18,24,15,0.326,12.5,20.3,7.0,10.37,5.3,14,50,10.7,0.00507,0.00609,54.1,49.1,13,887,0,.,8.30,0.00,0.00
15min,AgWx,beryljct,423,06APR2021:14:15:00,61.1,13.83,55.0,55.6,55.5,56.0,54.8,19,24,16,0.277,14.3,19.6,9.8,2.433,6.6,96,41,13.0,0.00502,0.00619,54.7,49.2,13,864,0,.,8.30,0.00,0.00
15min,AgWx,beryljct,423,06APR2021:14:30:00,61.9,13.8,56.7,56.9,56.2,56.9,55.4,17,21,14,0.292,12.4,17.4,7.2,10.46,4.7,178,94,10.9,0.00485,0.00581,55.2,49.4,13,838,0,.,8.30,0.00,0.00
15min,AgWx,beryljct,423,06APR2021:14:45:00,62.4,13.83,56.0,57.0,56.6,57.3,55.9,16,20,14,0.257,10.5,16.0,7.0,5.48,5.8,3.2,19,11.8,0.00482,0.00594,55.7,49.5,13,809,0,.,8.29,0.00,0.00
15min,AgWx,beryljct,423,06APR2021:15:00:00,63.1,13.74,57.1,56.3,56.8,57.6,56.2,16,19,14,0.236,10.6,15.0,7.3,0.965,4.7,336,37,12.1,0.00447,0.00544,56.2,49.6,13,757,0,.,8.29,0.00,0.00
15min,AgWx,beryljct,423,06APR2021:15:15:00,63.9,13.73,56.5,57.8,57.6,58.7,56.5,18,24,14,0.274,14.9,21.3,8.9,6.73,6.0,49,34,13.3,0.00438,0.00547,56.6,49.8,13,720,0,.,8.29,0.00,0.00
15min,AgWx,beryljct,423,06APR2021:15:30:00,64.3,13.82,58.2,57.9,57.9,58.9,57.0,17,22,14,0.310,13.5,19.6,8.5,6.73,6.9,30,29,11.3,0.00437,0.00558,57.0,49.9,13,699,0,.,8.29,0.00,0.00
15min,AgWx,beryljct,423,06APR2021:15:45:00,64.4,13.69,58.9,58.4,57.7,58.5,57.0,17,21,14,0.299,12.9,18.7,8.7,4.867,4.4,55,47,11.1,0.00381,0.00470,57.3,50.0,13,639,0,.,8.29,0.00,0.00
15min,AgWx,beryljct,423,06APR2021:16:00:00,64.7,13.7,57.7,58.7,58.3,59.3,57.4,19,24,15,0.376,15.9,21.5,10.9,9.71,8.0,69,36,12.6,0.00399,0.00528,57.6,50.2,13,610,0,.,8.29,0.00,0.00
15min,AgWx,beryljct,423,06APR2021:16:15:00,64.3,13.72,56.8,57.3,58.0,58.6,57.3,19,22,16,0.270,15.7,20.2,11.2,8.44,7.5,63,22,12.2,0.00369,0.00491,57.9,50.3,13,563,0,.,8.30,0.00,0.00
15min,AgWx,beryljct,423,06APR2021:16:30:00,64.1,13.68,58.4,57.8,57.4,57.9,57.1,17,20,15,0.335,12.8,17.6,9.9,8.72,3.9,94,31,9.4,0.00303,0.00380,58.1,50.5,13,514,0,.,8.29,0.00,0.00
15min,AgWx,beryljct,423,06APR2021:16:45:00,63.8,13.68,58.3,57.8,57.7,58.4,57.1,19,24,15,0.359,15.9,21.4,9.5,6.314,6.9,86,14,11.6,0.00309,0.00420,58.2,50.7,13,464,0,.,8.29,0.00,0.00
15min,AgWx,beryljct,423,06APR2021:17:00:00,63.3,13.72,57.6,57.3,57.7,58.2,57.3,19,23,15,0.261,15.0,19.8,10.7,5.831,5.4,76,26,9.6,0.00264,0.00356,58.4,50.8,13,412,0,.,8.29,0.00,0.00
15min,AgWx,beryljct,423,06APR2021:17:15:00,62.8,13.73,57.4,57.3,57.5,58.0,57.2,19,23,16,0.304,16.0,19.7,11.5,7.695,8.8,68,14,13.7,0.00275,0.00402,58.4,51.0,13,360,0,.,8.29,0.00,0.00
15min,AgWx,beryljct,423,06APR2021:17:30:00,62.0,13.76,57.0,57.0,57.2,57.5,56.9,20,25,18,0.297,16.2,21.6,13.5,9.23,9.4,51,10,11.9,0.00254,0.00384,58.5,51.1,13,308,0,.,8.30,0.00,0.00
15min,AgWx,beryljct,423,06APR2021:17:45:00,61.2,13.78,56.4,56.4,56.7,57.1,56.4,20,22,18,0.316,16.3,18.7,13.3,10.68,9.3,48,17,12.8,0.00224,0.00350,58.5,51.3,13,255,0,.,8.30,0.00,0.00
15min,AgWx,beryljct,423,06APR2021:18:00:00,60.2,13.83,56.0,55.9,56.1,56.5,55.7,20,22,18,0.288,15.8,18.0,14.0,10.94,10.3,53,12,13.5,0.00208,0.00340,58.4,51.5,13,203,0,.,8.30,0.00,0.00
15min,AgWx,beryljct,423,06APR2021:18:15:00,59.1,13.17,55.2,55.0,55.5,55.9,55.0,20,22,19,0.311,15.2,17.5,13.6,9.4,9.6,58,7.1,13.3,0.00096,0.00117,58.2,51.6,13,153,0,.,8.30,0.00,0.00
15min,AgWx,beryljct,423,06APR2021:18:30:00,57.9,13.11,54.1,53.9,54.6,55.3,53.9,21,24,19,0.314,15.9,18.4,14.1,7.914,8.7,60,6.0,11.6,0.00082,0.00102,58.0,51.8,13,106,0,.,8.30,0.00,0.00
15min,AgWx,beryljct,423,06APR2021:18:45:00,56.3,13.06,51.8,51.9,52.9,54.0,51.9,23,25,21,0.315,16.5,17.8,14.8,7.125,7.2,53,6.4,9.8,0.00062,0.00080,57.7,51.9,13,62,0,.,8.30,0.00,0.00
15min,AgWx,beryljct,423,06APR2021:19:00:00,54.3,13,49.5,49.9,50.6,52.0,49.6,25,26,23,0.303,16.2,17.3,15.2,4.406,4.9,54,6.7,7.2,0.00035,0.00049,57.3,51.9,13,16,0,.,8.30,0.00,0.00
15min,AgWx,beryljct,423,06APR2021:19:15:00,51.9,12.99,48.4,48.4,49.1,49.9,48.4,26,27,25,0.300,15.5,16.5,14.6,0.811,2.3,67,5.9,4.4,0.00004,0.00009,57.0,52.1,13,4,0,.,8.30,0.00,0.00
15min,AgWx,beryljct,423,06APR2021:19:30:00,49.6,12.97,48.6,48.5,48.2,48.7,47.8,25,29,22,0.259,14.1,17.3,11.5,2.039,0.6,35,15,2.3,-0.00025,-0.00036,56.6,52.2,13,0,0,.,8.31,0.00,0.00
15min,AgWx,beryljct,423,06APR2021:19:45:00,47.8,12.96,48.4,48.0,47.9,48.6,47.6,23,24,22,0.250,11.8,13.2,10.8,1.162,0.9,346,24,1.8,-0.00019,-0.00026,56.2,52.3,13,0,0,.,8.31,0.00,0.00
15min,AgWx,beryljct,423,06APR2021:20:00:00,46.4,12.95,47.1,47.2,47.6,48.0,47.0,23,25,22,0.257,11.3,13.2,10.5,0.658,0.6,11,16,1.5,-0.00025,-0.00036,55.8,52.4,13,0,0,.,8.31,0.00,0.00
15min,AgWx,beryljct,423,06APR2021:20:15:00,45.0,12.94,46.9,46.4,46.6,47.1,46.3,23,24,23,0.243,10.9,11.8,10.2,0,0.1,22,0.2,1.0,-0.00038,-0.00060,55.3,52.4,13,0,0,.,8.31,0.00,0.00
15min,AgWx,beryljct,423,06APR2021:20:30:00,43.9,12.92,45.9,45.5,45.7,46.6,45.0,24,27,22,0.247,11.3,12.8,10.1,0,0.4,307,0.1,1.3,-0.00028,-0.00041,54.9,52.5,13,0,0,.,8.31,0.00,0.00
15min,AgWx,beryljct,423,06APR2021:20:45:00,43.0,12.91,45.2,44.1,44.6,45.6,43.4,26,29,24,0.280,11.8,14.1,10.3,3.135,0.6,350,18,3.3,-0.00025,-0.00037,54.5,52.5,13,0,0,.,8.31,0.00,0.00
15min,AgWx,beryljct,423,06APR2021:21:00:00,42.6,12.91,42.6,43.0,44.1,45.3,41.6,27,35,24,0.278,12.2,16.3,10.5,2.85,3.1,22,54,7.1,0.00011,0.00019,54.1,52.5,13,0,0,.,8.31,0.00,0.00
15min,AgWx,beryljct,423,06APR2021:21:15:00,41.8,12.9,43.6,42.6,41.0,42.9,39.5,32,37,28,0.256,13.6,15.8,11.5,3.814,1.9,208,40,5.2,-0.00004,-0.00002,53.7,52.5,13,0,0,.,8.31,0.00,0.00
15min,AgWx,beryljct,423,06APR2021:21:30:00,41.0,12.88,40.6,39.2,40.1,43.5,37.5,36,45,26,0.299,14.7,18.2,10.7,3.683,3.2,308,12,5.0,0.00008,0.00013,53.2,52.5,13,0,0,.,8.31,0.00,0.00
15min,AgWx,beryljct,423,06APR2021:21:45:00,40.0,12.88,36.4,36.0,38.4,40.3,35.9,40,49,32,0.344,16.0,18.6,13.1,4.45,3.3,288,6.8,4.5,0.00007,0.00012,52.8,52.5,13,0,0,.,8.31,0.00,0.00
15min,AgWx,beryljct,423,06APR2021:22:00:00,39.1,12.87,34.6,34.5,38.4,41.2,34.3,35,48,27,0.258,12.7,18.0,9.9,4.406,4.6,306,12,5.3,0.00017,0.00024,52.5,52.5,13,0,0,.,8.31,0.00,0.00
15min,AgWx,beryljct,423,06APR2021:22:15:00,37.7,12.86,32.3,32.3,32.2,34.5,29.6,47,61,36,0.300,13.8,17.8,10.0,0,3.4,324,34,5.9,0.00004,0.00008,52.1,52.5,13,0,0,.,8.32,0.00,0.00
15min,AgWx,beryljct,423,06APR2021:22:30:00,36.3,12.85,32.4,32.3,33.0,33.8,31.7,47,53,43,0.292,15.0,17.7,13.2,2.126,0.9,349,73,2.1,-0.00016,-0.00022,51.7,52.5,13,0,0,.,8.32,0.00,0.00
15min,AgWx,beryljct,423,06APR2021:22:45:00,35.4,12.85,30.3,31.3,32.7,33.5,31.3,43,51,38,0.300,12.6,15.1,9.1,3.464,3.4,326,11,4.4,0.00005,0.00009,51.3,52.4,13,0,0,.,8.32,0.00,0.00
15min,AgWx,beryljct,423,06APR2021:23:00:00,34.4,12.84,29.7,32.0,30.2,32.4,28.6,53,57,47,0.297,14.9,16.2,13.0,1.907,2.7,298,29,3.4,-0.00001,0.00000,51.0,52.3,13,0,0,.,8.32,0.00,0.00
15min,AgWx,beryljct,423,06APR2021:23:15:00,33.6,12.83,33.5,33.5,32.6,33.9,31.0,45,53,41,0.274,13.3,15.7,12.0,2.039,1.1,205,21,2.3,-0.00013,-0.00017,50.6,52.3,13,0,0,.,8.32,0.00,0.00
15min,AgWx,beryljct,423,06APR2021:23:30:00,33.2,12.82,36.4,35.9,34.6,36.1,32.4,42,48,37,0.266,13.7,15.2,12.3,3.464,1.5,38,86,3.9,-0.00009,-0.00010,50.3,52.2,13,0,0,.,8.32,0.00,0.00
15min,AgWx,bigpiney,439,06APR2021:00:00:00,41.8,12.59,33.6,32.9,33.8,34.7,32.9,84,86,82,0.540,29.4,29.9,29.0,3.244,4.1,30,7.9,6.7,-0.00005,-0.00005,31.5,31.6,11,0,0,0.0,0.41,0.00,0.00
15min,AgWx,bigpiney,439,06APR2021:00:15:00,40.4,12.59,32.8,32.4,32.8,33.1,32.4,87,88,85,0.548,29.4,29.7,29.0,0.877,3.2,39,15,4.4,-0.00008,-0.00010,31.5,31.6,11,0,0,0.0,0.41,0.00,0.00
15min,AgWx,bigpiney,439,06APR2021:00:30:00,38.9,12.57,33.1,30.7,30.3,32.2,29.2,90,93,87,0.536,27.7,29.1,26.4,0,0.6,213,23,3.1,-0.00017,-0.00025,31.5,31.7,11,0,0,0.0,0.41,0.00,0.00
15min,AgWx,bigpiney,439,06APR2021:00:45:00,37.3,12.57,31.0,28.5,30.5,31.1,28.5,93,93,92,0.491,28.6,29.3,26.7,1.315,0.5,94,49,1.5,-0.00018,-0.00026,31.5,31.7,11,0,0,0.0,0.41,0.00,0.00
15min,AgWx,bigpiney,439,06APR2021:01:00:00,35.9,12.55,32.4,30.0,29.3,30.1,28.4,94,95,93,0.533,27.8,28.7,26.6,2.324,2.3,250,24,3.2,-0.00012,-0.00015,31.5,31.6,11,0,0,0.0,0.41,0.00,0.00
15min,AgWx,bigpiney,439,06APR2021:01:15:00,34.9,12.55,32.4,30.1,29.9,30.1,29.7,95,95,95,0.535,28.6,28.8,28.4,0,2.4,285,11,3.8,-0.00012,-0.00015,31.5,31.7,11,0,0,0.0,0.41,0.00,0.00
15min,AgWx,bigpiney,439,06APR2021:01:30:00,34.7,12.54,34.1,31.3,30.7,31.3,29.9,94,95,93,0.551,29.1,29.5,28.5,3.179,1.8,64,7.8,3.6,-0.00013,-0.00017,31.5,31.7,11,0,0,0.0,0.41,0.00,0.00
15min,AgWx,bigpiney,439,06APR2021:01:45:00,34.9,12.54,34.2,31.7,31.5,31.8,31.1,92,93,91,0.548,29.4,29.8,28.9,3.595,2.9,64,6.8,4.2,-0.00010,-0.00012,31.5,31.6,11,0,0,0.0,0.41,0.00,0.00
15min,AgWx,bigpiney,439,06APR2021:02:00:00,35.2,12.53,34.1,31.2,31.4,31.7,31.1,91,91,91,0.538,29.0,29.3,28.8,2.017,2.2,89,72,4.7,-0.00012,-0.00015,31.5,31.6,11,0,0,0.0,0.41,0.00,0.00
15min,AgWx,bigpiney,439,06APR2021:02:15:00,35.5,12.52,35.4,32.4,31.4,32.4,31.0,91,91,90,0.557,29.1,29.8,28.7,3.902,2.9,255,18,4.4,-0.00010,-0.00012,31.5,31.6,11,0,0,0.0,0.41,0.00,0.00
15min,AgWx,bigpiney,439,06APR2021:02:30:00,35.9,12.51,35.7,33.1,32.9,33.2,32.5,89,90,89,0.567,30.0,30.2,29.8,2.039,4.6,289,13,6.8,-0.00006,-0.00006,31.5,31.6,11,0,1,0.0,0.41,0.00,0.00
15min,AgWx,bigpiney,439,06APR2021:02:45:00,36.2,12.5,36.1,33.0,33.0,33.1,32.8,89,90,89,0.571,30.2,30.4,30.1,2.214,2.6,294,27,4.2,-0.00011,-0.00013,31.5,31.6,11,0,1,0.0,0.41,0.00,0.00
15min,AgWx,bigpiney,439,06APR2021:03:00:00,36.4,12.49,35.1,32.5,33.0,33.3,32.5,88,90,86,0.555,29.8,30.4,29.4,1.644,3.8,359,20,6.4,-0.00007,-0.00008,31.5,31.6,11,0,1,0.0,0.41,0.00,0.00
15min,AgWx,bigpiney,439,06APR2021:03:15:00,36.5,12.48,31.7,31.1,31.8,32.6,31.1,79,89,72,0.431,25.9,29.7,23.4,7.059,6.0,243,33,12.4,0.00000,0.00002,31.5,31.6,11,0,1,0.0,0.41,0.00,0.00
15min,AgWx,bigpiney,439,06APR2021:03:30:00,36.3,12.48,31.2,30.9,31.1,31.3,30.9,71,74,69,0.413,22.7,23.6,22.2,9.76,9.1,245,9.5,13.1,0.00008,0.00011,31.5,31.6,11,0,1,0.0,0.41,0.00,0.00
15min,AgWx,bigpiney,439,06APR2021:03:45:00,35.9,12.45,31.0,30.8,30.8,31.0,30.7,71,72,70,0.411,22.6,22.9,22.3,8.22,9.4,240,9.4,14.0,0.00009,0.00011,31.5,31.6,11,0,1,0.0,0.41,0.00,0.00
15min,AgWx,bigpiney,439,06APR2021:04:00:00,35.6,12.44,30.8,30.7,30.8,30.9,30.7,70,71,68,0.397,22.0,22.5,21.6,8.66,10.0,246,9.9,14.5,0.00010,0.00012,31.5,31.7,11,0,0,0.0,0.41,0.00,0.00
15min,AgWx,bigpiney,439,06APR2021:04:15:00,35.2,12.44,29.7,29.5,30.2,30.7,29.5,70,76,66,0.414,21.7,23.0,20.6,14.99,12.8,247,11,17.6,0.00012,0.00014,31.5,31.6,11,0,0,0.0,0.41,0.00,0.00
15min,AgWx,bigpiney,439,06APR2021:04:30:00,34.7,12.43,28.1,27.7,28.6,29.6,27.7,81,85,75,0.437,23.6,24.1,22.5,12.76,15.0,245,7.7,21.1,0.00006,0.00008,31.5,31.6,11,0,0,0.0,0.41,0.00,0.00
15min,AgWx,bigpiney,439,06APR2021:04:45:00,34.1,12.42,28.8,27.3,27.4,27.7,27.3,87,89,85,0.447,24.1,24.4,23.8,11.68,15.0,242,6.5,19.8,0.00003,0.00003,31.5,31.6,11,0,0,0.0,0.41,0.00,0.00
15min,AgWx,bigpiney,439,06APR2021:05:00:00,33.4,12.41,28.9,27.4,27.2,27.4,27.1,89,89,87,0.442,24.3,24.5,24.0,10.04,12.1,244,6.7,15.8,0.00001,0.00001,31.5,31.6,11,0,0,0.0,0.41,0.00,0.00
15min,AgWx,bigpiney,439,06APR2021:05:15:00,33.0,12.39,29.1,27.4,27.4,27.5,27.2,88,88,87,0.445,24.2,24.4,24.0,11.66,11.7,242,6.4,15.4,0.00001,0.00002,31.5,31.6,11,0,0,0.0,0.41,0.00,0.00
15min,AgWx,bigpiney,439,06APR2021:05:30:00,32.8,12.38,29.0,27.4,27.4,27.5,27.3,88,88,88,0.446,24.3,24.4,24.2,10.28,10.5,240,6.8,13.7,0.00000,0.00001,31.5,31.6,11,0,0,0.0,0.41,0.00,0.00
15min,AgWx,bigpiney,439,06APR2021:05:45:00,32.6,12.37,29.1,27.1,27.2,27.4,27.1,89,90,88,0.449,24.5,24.6,24.3,6.599,9.1,226,7.5,12.3,-0.00001,-0.00000,31.5,31.6,11,0,0,0.0,0.41,0.00,0.00
15min,AgWx,bigpiney,439,06APR2021:06:00:00,32.4,12.36,29.2,27.0,27.1,27.2,27.0,90,91,90,0.451,24.6,24.7,24.5,7.87,9.2,228,7.4,11.5,-0.00001,-0.00001,31.5,31.7,11,1,0,0.0,0.41,0.00,0.00
15min,AgWx,bigpiney,439,06APR2021:06:15:00,32.2,12.36,28.9,26.7,26.9,27.1,26.7,91,91,90,0.444,24.5,24.7,24.2,9.16,9.3,222,7.2,12.5,0.00010,0.00017,31.5,31.6,11,3,0,0.0,0.41,0.00,0.00
15min,AgWx,bigpiney,439,06APR2021:06:30:00,32.0,12.36,28.8,26.4,26.5,26.7,26.4,90,91,90,0.436,24.0,24.3,23.8,9.84,10.4,234,7.9,13.8,0.00013,0.00021,31.5,31.6,11,10,0,0.0,0.41,0.00,0.00
15min,AgWx,bigpiney,439,06APR2021:06:45:00,31.8,12.36,28.9,26.6,26.5,26.6,26.4,89,90,89,0.437,23.8,23.9,23.7,6.708,9.7,253,5.9,12.4,0.00016,0.00024,31.5,31.6,11,19,0,0.0,0.41,0.00,0.00
15min,AgWx,bigpiney,439,06APR2021:07:00:00,31.7,12.38,28.8,26.7,26.7,26.9,26.6,89,90,88,0.435,24.0,24.1,23.8,10.57,9.2,268,9.0,13.9,0.00019,0.00028,31.5,31.6,12,48,0,0.0,0.41,0.00,0.00
15min,AgWx,bigpiney,439,06APR2021:07:15:00,31.6,12.43,28.6,26.3,26.5,26.7,26.2,88,89,88,0.429,23.5,23.8,23.3,9.62,11.2,266,5.7,14.0,0.00028,0.00038,31.5,31.6,12,106,0,0.0,0.41,0.00,0.00
15min,AgWx,bigpiney,439,06APR2021:07:30:00,31.7,12.45,27.9,26.1,26.4,26.7,26.1,88,89,86,0.412,23.3,23.8,22.5,15.1,11.2,295,15,18.7,0.00037,0.00048,31.5,31.6,12,143,0,0.0,0.41,0.00,0.00
15min,AgWx,bigpiney,439,06APR2021:07:45:00,31.8,12.47,27.9,26.3,26.1,26.4,26.0,87,87,85,0.412,22.7,23.0,22.4,11.62,11.9,302,8.0,18.5,0.00043,0.00055,31.5,31.6,12,153,0,0.0,0.41,0.00,0.00
15min,AgWx,bigpiney,439,06APR2021:08:00:00,31.9,12.68,27.4,26.3,26.2,26.4,26.0,85,86,84,0.406,22.2,22.5,22.0,6.138,8.5,321,12,13.0,0.00053,0.00065,31.5,31.6,12,180,0,0.0,0.41,0.00,0.00
15min,AgWx,bigpiney,439,06APR2021:08:15:00,32.2,13.57,28.7,28.0,27.0,28.0,26.3,80,84,75,0.391,21.8,22.2,21.1,7.103,5.7,344,14,9.2,0.00074,0.00088,31.5,31.7,12,245,0,0.0,0.41,0.00,0.00
15min,AgWx,bigpiney,439,06APR2021:08:30:00,32.8,13.89,28.2,27.7,27.5,28.0,27.3,79,81,75,0.404,21.9,22.4,21.2,2.894,4.5,5.4,9.8,6.8,0.00105,0.00120,31.5,31.6,12,351,0,0.0,0.41,0.00,0.00
15min,AgWx,bigpiney,439,06APR2021:08:45:00,33.9,13.97,29.7,28.9,28.2,29.1,27.7,77,80,74,0.398,22.0,22.5,21.4,0,1.5,54,8.6,3.3,0.00109,0.00119,31.5,31.7,12,316,0,0.0,0.42,0.00,0.01